SCP
0 0 0 0 0 0 0 0 0 0 0 0 0 0 0 0 0 0 0 1 1 0 0 1 1 1 1 1 0 0 0 0 0 0 0 0 0 0 0 0 0 0 0
1 0 0 0 0 0 0 0 0 0 0 0 0 0 0 0 0 0 0 0 1 0 0 0 1 1 1 1 1 0 0 0 0 0 0 0 0 0 0 0 0 0 0
1 1 0 0 0 0 0 0 0 1 0 0 0 0 0 0 0 1 1 0 1 1 1 1 1 1 1 1 1 0 0 0 1 0 0 0 0 0 0 0 0 0 0
1 1 0 0 0 0 0 0 0 0 1 -0 1 1 1 1 1 1 1 0 0 1 1 1 1 1 1 1 1 1 0 0 0 0 0 0 0 0 0 0 0 0 0
0 0 0 0 1 0 0 0 0 2 1 1 1 1 2 1 1 1 1 1 1 0 1 1 1 1 1 1 0 0 0 0 0 0 0 0 0 0 0 0 0 0 0
1 1 0 1 2 1 0 0 1 1 0 -0 1 2 2 2 2 1 1 1 1 2 1 1 1 1 1 1 1 0 0 0 0 0 0 0 0 0 0 0 0 0 0
1 1 1 2 2 1 1 2 1 4 0 1 1 2 3 3 2 1 2 1 2 2 1 1 1 1 1 1 1 0 0 0 0 0 0 0 0 0 0 0 0 0 0
1 1 1 2 2 1 3 2 2 0 1 1 2 2 2 3 3 3 1 1 2 1 1 1 1 1 1 1 0 0 0 0 0 0 0 0 0 0 0 0 0 0 0
1 2 2 2 3 2 4 3 4 2 2 3 3 2 3 1 3 3 2 1 2 1 0 1 1 1 1 0 1 0 0 0 0 0 0 -0 0 0 0 0 0 0 0
4 2 2 2 4 2 3 4 3 4 4 3 4 2 1 2 3 5 2 2 1 1 1 1 1 1 1 1 1 1 0 0 0 0 0 -0 0 0 0 0 0 0 0
4 1 3 3 4 2 4 6 4 4 6 3 4 3 2 2 2 3 2 2 1 0 1 1 0 0 1 0 1 1 0 0 0 0 0 0 0 0 0 0 0 0 0
3 4 3 5 5 4 4 6 7 11 5 3 3 4 4 3 2 2 1 1 1 2 1 1 1 0 0 1 0 0 0 0 0 0 0 0 0 0 0 0 0 0 0
1 4 5 5 6 6 6 6 9 6 7 4 4 3 6 3 2 3 1 1 0 2 2 0 0 0 1 1 1 0 0 0 0 0 0 0 0 0 0 0 0 0 0
1 3 6 7 7 6 4 7 5 5 8 4 5 4 5 4 2 2 1 1 0 1 2 1 1 0 0 1 1 0 0 0 0 0 0 0 0 0 0 0 0 0 0
1 2 4 3 3 4 4 7 6 7 6 6 5 6 4 6 4 1 1 0 0 1 1 1 1 1 1 1 0 0 0 0 0 0 0 0 0 0 0 0 0 0 0
2 2 4 5 2 3 3 6 7 5 6 6 4 5 5 5 4 2 1 1 0 1 1 0 0 1 1 1 0 0 0 0 0 0 0 0 0 0 0 0 0 0 0
1 1 2 3 4 3 4 6 7 5 5 6 4 4 4 4 3 2 1 0 1 1 0 1 1 1 1 1 0 0 0 0 0 0 0 0 0 0 0 0 0 0 0
1 1 2 2 2 3 4 4 4 4 4 4 3 4 4 3 2 2 1 2 1 1 0 1 1 0 0 0 0 0 0 0 0 0 0 0 0 0 0 -0 0 0 0
1 1 1 2 2 3 4 3 3 3 3 3 3 3 3 3 2 1 1 1 1 0 1 0 1 0 0 0 0 0 0 0 0 0 0 0 0 0 0 0 -0 -0 0
0 1 2 1 1 2 2 2 2 4 4 3 3 2 2 2 1 1 1 1 1 1 0 1 1 0 0 0 0 0 0 0 0 0 0 0 0 0 0 0 0 -0 -0
0 1 1 1 1 2 2 2 2 4 4 3 3 2 2 1 1 1 1 1 1 0 0 1 0 0 0 0 0 0 0 0 0 0 0 0 0 0 0 0 0 0 0
1 2 1 1 1 2 1 3 3 4 3 3 3 2 3 1 0 0 0 0 0 0 0 0 0 0 0 0 0 0 0 0 0 0 0 0 0 0 0 0 0 0 0
1 1 1 1 1 2 1 3 4 5 3 3 3 3 2 1 1 0 0 0 0 0 0 0 0 0 0 0 0 0 0 0 0 0 0 0 0 0 0 0 -0 0 0
1 1 1 1 2 4 0 2 3 4 3 3 2 2 1 1 1 0 0 0 0 0 0 0 0 0 0 0 0 0 0 0 0 0 0 0 0 0 0 0 0 0 0
1 1 2 2 2 2 0 1 2 3 2 2 2 1 1 1 0 0 0 0 0 0 0 0 0 0 0 0 0 0 0 0 0 0 0 0 0 0 0 0 0 0 0
1 2 2 1 2 1 0 1 2 2 3 2 1 1 0 0 0 0 0 0 0 0 0 0 0 0 0 0 0 0 0 0 0 0 0 0 0 0 0 0 0 0 0
Wind_Speed_500mb
38 34 32 27 26 20 23 20 24 30 29 29 29 29 31 32 35 33 32 43 47 39 38 35 35 30 28 29 30 32 35 37 33 31 34 37 37 38 36 34 33 32 34
43 37 36 32 29 27 26 27 26 26 31 23 27 29 32 32 33 31 30 34 38 34 32 32 34 34 32 32 32 32 34 36 33 31 33 34 36 37 35 32 28 29 30
51 51 39 36 32 29 34 35 30 30 30 25 27 29 29 35 33 30 35 29 32 34 28 35 36 35 35 33 32 33 34 33 35 31 32 33 35 35 33 30 30 30 31
59 57 47 44 37 34 34 29 19 34 34 27 27 27 28 33 31 31 33 28 27 35 33 34 34 33 37 34 33 34 33 31 35 32 32 34 35 32 30 30 30 29 31
66 59 58 46 44 38 41 31 23 31 35 35 29 29 32 29 31 32 36 33 32 35 33 38 33 34 39 33 33 36 34 30 31 30 31 33 31 30 29 29 30 30 32
71 68 64 52 58 50 37 18 20 37 43 39 30 31 36 32 33 35 41 35 37 39 34 33 37 31 32 27 32 35 36 34 31 29 31 32 30 31 29 28 30 32 35
61 64 67 62 66 52 35 5 28 60 49 51 29 31 36 41 39 43 41 37 39 38 36 33 33 31 36 28 29 34 36 37 33 31 31 34 31 30 30 30 29 32 36
60 73 71 63 65 54 47 12 32 82 44 35 30 26 29 38 45 48 30 34 37 30 30 28 33 29 27 31 29 26 33 36 34 30 30 35 33 28 27 30 31 30 35
66 63 69 67 67 66 67 41 34 78 49 42 42 32 19 31 28 31 32 31 28 28 26 27 31 27 32 30 37 34 34 37 35 29 29 34 33 30 27 29 31 29 31
65 59 65 70 76 70 82 68 58 57 56 50 38 43 51 35 18 18 24 25 30 31 32 26 26 20 27 26 25 29 29 27 32 26 29 32 31 31 29 26 28 27 32
48 53 60 67 72 74 83 67 51 63 58 51 46 33 34 40 45 33 31 31 23 24 19 23 19 22 27 23 25 32 29 34 29 26 29 31 31 31 28 25 24 28 29
52 60 62 68 62 62 80 80 60 57 67 57 50 45 40 32 32 36 35 33 34 29 21 18 21 18 20 23 21 32 29 27 31 25 29 31 30 29 27 24 22 26 24
48 52 61 62 63 60 63 73 75 63 70 61 60 45 47 36 36 32 36 31 27 21 22 19 18 19 22 20 27 31 30 28 31 27 29 32 30 28 24 24 23 25 20
52 56 67 73 66 65 63 72 78 74 69 62 63 53 42 42 35 35 35 26 30 21 27 27 21 20 22 23 35 29 29 29 30 27 29 32 31 28 25 24 25 21 12
59 58 60 61 55 62 68 73 65 61 63 59 53 53 45 41 43 37 29 27 29 28 34 26 17 19 25 28 28 27 28 28 29 33 29 32 33 30 26 26 29 30 23
65 64 53 58 60 56 59 64 57 61 58 51 47 46 43 41 44 34 27 29 27 28 27 20 17 20 22 24 27 21 26 30 26 35 34 31 33 31 28 29 32 38 29
61 68 62 55 59 56 62 66 64 58 55 58 50 45 44 45 41 34 28 28 30 26 27 12 16 28 28 22 19 19 25 25 26 28 37 34 33 30 29 32 33 45 40
59 59 57 57 62 60 66 72 70 60 58 59 51 47 45 41 48 36 30 33 28 28 27 21 21 19 25 23 20 18 16 19 20 25 31 32 32 30 31 33 36 44 36
60 58 58 60 68 69 71 75 67 65 57 54 52 47 47 47 38 32 35 29 31 27 26 26 22 22 22 18 18 21 20 15 22 16 26 27 27 30 30 31 34 44 41
59 59 62 67 74 70 71 70 67 65 57 52 48 44 46 42 35 36 33 35 26 34 31 25 22 19 20 20 25 19 19 18 20 20 28 29 27 27 28 33 34 39 43
64 60 67 72 74 74 77 74 70 67 61 53 50 47 45 39 37 33 30 32 33 28 30 29 23 24 23 23 27 20 18 24 20 21 23 26 26 29 29 36 34 40 48
70 66 74 75 79 81 80 78 72 69 62 52 53 47 42 47 43 44 41 35 32 34 27 27 26 25 26 24 29 26 30 26 19 24 24 26 28 31 36 34 34 37 47
70 73 81 78 83 83 82 81 80 70 58 57 55 47 37 33 45 45 41 42 39 36 33 28 25 23 25 21 24 29 24 23 16 21 23 23 29 33 34 35 29 38 41
77 80 87 82 81 82 78 86 79 60 58 54 49 44 43 42 41 38 36 35 32 30 30 25 29 23 18 18 22 30 25 30 23 19 22 28 35 35 35 35 34 39 39
79 82 86 83 83 87 85 84 78 59 54 49 42 39 43 40 37 38 27 25 25 27 29 31 28 21 21 20 20 24 37 31 26 26 32 32 38 36 35 35 37 43 39
79 84 85 83 83 81 86 79 73 52 54 45 39 37 43 34 35 36 34 30 29 30 24 34 30 25 21 21 19 23 30 32 25 20 36 37 43 40 35 25 38 40 41
Wind_Direction_500mb
224 227 220 221 228 239 248 243 245 245 260 261 260 264 264 257 255 254 254 274 276 264 246 247 264 269 276 270 266 267 260 263 268 259 247 241 240 240 244 247 244 238 231
228 226 233 230 228 232 236 240 245 254 264 264 263 266 266 260 258 257 258 268 276 276 243 249 266 273 270 269 270 266 257 260 261 259 247 241 238 239 243 242 234 227 227
233 237 239 243 243 237 241 233 245 271 269 265 271 266 267 270 259 248 257 253 265 271 267 264 269 270 277 272 269 263 257 258 259 257 246 240 237 239 239 241 232 233 235
253 253 240 249 242 233 243 238 236 305 275 265 268 267 270 271 262 259 256 252 252 266 271 278 268 272 280 273 267 263 256 256 255 255 242 237 236 237 236 236 229 231 230
258 248 249 237 238 227 230 252 245 282 275 260 262 266 265 261 259 258 256 253 253 254 268 274 278 281 280 270 266 263 257 255 252 250 241 234 236 233 233 230 230 233 226
262 253 239 237 233 230 239 245 284 305 278 280 262 264 262 263 262 257 258 255 257 260 256 269 280 290 281 278 271 260 255 255 251 252 244 232 230 230 230 231 229 233 229
251 255 247 233 237 228 203 268 313 277 261 279 257 262 263 282 275 246 253 256 258 255 267 264 263 267 274 271 275 262 253 251 252 251 247 228 227 230 230 232 234 235 229
256 248 246 227 237 217 201 234 325 262 257 248 241 256 268 268 254 249 237 252 261 252 261 256 257 256 255 273 274 263 254 244 253 256 243 221 223 225 229 230 235 240 237
263 244 241 237 237 216 212 241 260 260 238 241 239 234 246 262 266 232 227 231 245 249 254 253 258 256 254 242 254 255 252 248 249 251 232 219 222 223 228 230 233 239 235
264 254 245 245 233 227 220 235 245 254 242 226 236 255 235 262 285 226 231 229 223 238 243 256 265 252 257 258 264 271 245 245 239 241 226 219 218 223 229 233 234 240 229
263 262 246 242 242 229 223 231 246 257 246 236 235 237 247 242 251 263 276 229 217 237 241 263 252 255 264 258 259 266 264 243 228 235 223 216 215 222 230 237 235 226 227
257 260 248 247 249 241 230 236 235 254 253 249 232 230 237 229 243 245 248 251 252 231 216 243 261 260 246 268 258 250 255 243 219 227 221 215 216 220 227 231 225 221 224
249 249 257 251 251 248 238 231 235 241 250 239 243 222 234 233 244 241 244 259 267 232 216 262 248 252 251 248 256 262 256 231 215 225 219 217 217 217 223 223 219 210 224
258 248 250 257 255 253 246 233 237 235 235 242 226 227 231 236 233 239 240 250 258 249 252 222 236 245 260 250 253 254 257 221 217 220 216 217 219 219 220 218 210 191 197
254 259 258 264 257 247 240 232 229 235 227 233 222 231 222 238 234 224 238 242 258 268 240 228 225 222 234 248 245 252 227 230 226 227 224 219 221 221 220 216 204 183 153
256 242 249 246 256 247 230 229 223 226 229 221 211 224 224 223 229 215 226 237 246 259 277 204 214 225 227 247 252 226 216 230 232 226 217 221 220 219 221 218 208 193 179
270 261 241 238 240 236 225 221 214 214 217 214 210 217 224 215 221 213 224 233 240 246 252 237 219 254 246 239 238 231 225 225 230 221 221 224 220 218 222 221 213 198 193
265 261 249 241 232 231 225 220 210 208 210 206 207 207 211 210 213 202 218 227 231 240 241 256 238 246 238 236 228 223 212 213 213 213 220 215 214 217 219 219 207 191 193
260 257 246 235 228 226 222 219 207 202 207 207 203 201 204 209 209 208 215 225 225 236 247 243 246 234 243 233 214 218 215 186 204 205 210 211 215 218 215 215 213 198 197
260 254 243 232 228 223 218 212 202 198 201 203 202 201 204 204 208 207 218 209 222 231 236 242 234 229 235 226 208 218 204 198 180 199 207 215 214 212 205 213 205 198 205
256 247 240 232 226 219 212 206 199 196 197 195 197 197 202 204 212 215 205 217 217 229 236 235 229 217 229 216 203 203 194 206 198 201 204 209 210 202 204 190 191 200 215
252 242 235 229 223 215 209 202 197 193 192 188 196 192 199 209 211 206 203 212 217 221 224 229 222 218 223 217 199 195 212 196 202 205 202 205 201 199 196 194 196 197 196
248 237 227 225 218 207 206 199 196 189 183 190 193 187 195 205 211 212 212 215 225 232 225 216 221 215 225 219 201 205 207 189 197 200 205 193 201 198 205 198 197 190 188
244 229 218 220 210 200 201 198 191 183 180 188 188 190 191 206 206 203 209 215 224 230 227 222 217 213 217 232 222 210 200 191 199 214 213 190 199 206 197 197 192 193 194
239 222 215 211 199 193 197 196 182 181 178 181 183 189 194 206 207 192 194 206 206 215 212 212 216 217 233 238 228 207 207 200 205 211 200 206 198 197 205 208 206 200 202
225 214 212 199 193 194 192 191 173 173 173 174 178 187 193 197 205 201 186 210 199 212 211 216 221 229 231 231 219 213 203 196 192 193 207 207 201 199 197 198 201 209 212
Wind_Speed_850mb
38 34 32 27 26 20 23 20 24 30 29 29 29 29 31 32 35 33 32 43 47 39 38 35 35 30 28 29 30 32 35 37 33 31 34 37 37 38 36 34 33 32 34
43 37 36 32 29 27 26 27 26 26 31 23 27 29 32 32 33 31 30 34 38 34 32 32 34 34 32 32 32 32 34 36 33 31 33 34 36 37 35 32 28 29 30
51 51 39 36 32 29 34 35 30 30 30 25 27 29 29 35 33 30 35 29 32 34 28 35 36 35 35 33 32 33 34 33 35 31 32 33 35 35 33 30 30 30 31
59 57 47 44 37 34 34 29 19 34 34 27 27 27 28 33 31 31 33 28 27 35 33 34 34 33 37 34 33 34 33 31 35 32 32 34 35 32 30 30 30 29 31
66 59 58 46 44 38 41 31 23 31 35 35 29 29 32 29 31 32 36 33 32 35 33 38 33 34 39 33 33 36 34 30 31 30 31 33 31 30 29 29 30 30 32
71 68 64 52 58 50 37 18 20 37 43 39 30 31 36 32 33 35 41 35 37 39 34 33 37 31 32 27 32 35 36 34 31 29 31 32 30 31 29 28 30 32 35
61 64 67 62 66 52 35 5 28 60 49 51 29 31 36 41 39 43 41 37 39 38 36 33 33 31 36 28 29 34 36 37 33 31 31 34 31 30 30 30 29 32 36
60 73 71 63 65 54 47 12 32 82 44 35 30 26 29 38 45 48 30 34 37 30 30 28 33 29 27 31 29 26 33 36 34 30 30 35 33 28 27 30 31 30 35
66 63 69 67 67 66 67 41 34 78 49 42 42 32 19 31 28 31 32 31 28 28 26 27 31 27 32 30 37 34 34 37 35 29 29 34 33 30 27 29 31 29 31
65 59 65 70 76 70 82 68 58 57 56 50 38 43 51 35 18 18 24 25 30 31 32 26 26 20 27 26 25 29 29 27 32 26 29 32 31 31 29 26 28 27 32
48 53 60 67 72 74 83 67 51 63 58 51 46 33 34 40 45 33 31 31 23 24 19 23 19 22 27 23 25 32 29 34 29 26 29 31 31 31 28 25 24 28 29
52 60 62 68 62 62 80 80 60 57 67 57 50 45 40 32 32 36 35 33 34 29 21 18 21 18 20 23 21 32 29 27 31 25 29 31 30 29 27 24 22 26 24
48 52 61 62 63 60 63 73 75 63 70 61 60 45 47 36 36 32 36 31 27 21 22 19 18 19 22 20 27 31 30 28 31 27 29 32 30 28 24 24 23 25 20
52 56 67 73 66 65 63 72 78 74 69 62 63 53 42 42 35 35 35 26 30 21 27 27 21 20 22 23 35 29 29 29 30 27 29 32 31 28 25 24 25 21 12
59 58 60 61 55 62 68 73 65 61 63 59 53 53 45 41 43 37 29 27 29 28 34 26 17 19 25 28 28 27 28 28 29 33 29 32 33 30 26 26 29 30 23
65 64 53 58 60 56 59 64 57 61 58 51 47 46 43 41 44 34 27 29 27 28 27 20 17 20 22 24 27 21 26 30 26 35 34 31 33 31 28 29 32 38 29
61 68 62 55 59 56 62 66 64 58 55 58 50 45 44 45 41 34 28 28 30 26 27 12 16 28 28 22 19 19 25 25 26 28 37 34 33 30 29 32 33 45 40
59 59 57 57 62 60 66 72 70 60 58 59 51 47 45 41 48 36 30 33 28 28 27 21 21 19 25 23 20 18 16 19 20 25 31 32 32 30 31 33 36 44 36
60 58 58 60 68 69 71 75 67 65 57 54 52 47 47 47 38 32 35 29 31 27 26 26 22 22 22 18 18 21 20 15 22 16 26 27 27 30 30 31 34 44 41
59 59 62 67 74 70 71 70 67 65 57 52 48 44 46 42 35 36 33 35 26 34 31 25 22 19 20 20 25 19 19 18 20 20 28 29 27 27 28 33 34 39 43
64 60 67 72 74 74 77 74 70 67 61 53 50 47 45 39 37 33 30 32 33 28 30 29 23 24 23 23 27 20 18 24 20 21 23 26 26 29 29 36 34 40 48
70 66 74 75 79 81 80 78 72 69 62 52 53 47 42 47 43 44 41 35 32 34 27 27 26 25 26 24 29 26 30 26 19 24 24 26 28 31 36 34 34 37 47
70 73 81 78 83 83 82 81 80 70 58 57 55 47 37 33 45 45 41 42 39 36 33 28 25 23 25 21 24 29 24 23 16 21 23 23 29 33 34 35 29 38 41
77 80 87 82 81 82 78 86 79 60 58 54 49 44 43 42 41 38 36 35 32 30 30 25 29 23 18 18 22 30 25 30 23 19 22 28 35 35 35 35 34 39 39
79 82 86 83 83 87 85 84 78 59 54 49 42 39 43 40 37 38 27 25 25 27 29 31 28 21 21 20 20 24 37 31 26 26 32 32 38 36 35 35 37 43 39
79 84 85 83 83 81 86 79 73 52 54 45 39 37 43 34 35 36 34 30 29 30 24 34 30 25 21 21 19 23 30 32 25 20 36 37 43 40 35 25 38 40 41
Wind_Direction_850mb
224 227 220 221 228 239 248 243 245 245 260 261 260 264 264 257 255 254 254 274 276 264 246 247 264 269 276 270 266 267 260 263 268 259 247 241 240 240 244 247 244 238 231
228 226 233 230 228 232 236 240 245 254 264 264 263 266 266 260 258 257 258 268 276 276 243 249 266 273 270 269 270 266 257 260 261 259 247 241 238 239 243 242 234 227 227
233 237 239 243 243 237 241 233 245 271 269 265 271 266 267 270 259 248 257 253 265 271 267 264 269 270 277 272 269 263 257 258 259 257 246 240 237 239 239 241 232 233 235
253 253 240 249 242 233 243 238 236 305 275 265 268 267 270 271 262 259 256 252 252 266 271 278 268 272 280 273 267 263 256 256 255 255 242 237 236 237 236 236 229 231 230
258 248 249 237 238 227 230 252 245 282 275 260 262 266 265 261 259 258 256 253 253 254 268 274 278 281 280 270 266 263 257 255 252 250 241 234 236 233 233 230 230 233 226
262 253 239 237 233 230 239 245 284 305 278 280 262 264 262 263 262 257 258 255 257 260 256 269 280 290 281 278 271 260 255 255 251 252 244 232 230 230 230 231 229 233 229
251 255 247 233 237 228 203 268 313 277 261 279 257 262 263 282 275 246 253 256 258 255 267 264 263 267 274 271 275 262 253 251 252 251 247 228 227 230 230 232 234 235 229
256 248 246 227 237 217 201 234 325 262 257 248 241 256 268 268 254 249 237 252 261 252 261 256 257 256 255 273 274 263 254 244 253 256 243 221 223 225 229 230 235 240 237
263 244 241 237 237 216 212 241 260 260 238 241 239 234 246 262 266 232 227 231 245 249 254 253 258 256 254 242 254 255 252 248 249 251 232 219 222 223 228 230 233 239 235
264 254 245 245 233 227 220 235 245 254 242 226 236 255 235 262 285 226 231 229 223 238 243 256 265 252 257 258 264 271 245 245 239 241 226 219 218 223 229 233 234 240 229
263 262 246 242 242 229 223 231 246 257 246 236 235 237 247 242 251 263 276 229 217 237 241 263 252 255 264 258 259 266 264 243 228 235 223 216 215 222 230 237 235 226 227
257 260 248 247 249 241 230 236 235 254 253 249 232 230 237 229 243 245 248 251 252 231 216 243 261 260 246 268 258 250 255 243 219 227 221 215 216 220 227 231 225 221 224
249 249 257 251 251 248 238 231 235 241 250 239 243 222 234 233 244 241 244 259 267 232 216 262 248 252 251 248 256 262 256 231 215 225 219 217 217 217 223 223 219 210 224
258 248 250 257 255 253 246 233 237 235 235 242 226 227 231 236 233 239 240 250 258 249 252 222 236 245 260 250 253 254 257 221 217 220 216 217 219 219 220 218 210 191 197
254 259 258 264 257 247 240 232 229 235 227 233 222 231 222 238 234 224 238 242 258 268 240 228 225 222 234 248 245 252 227 230 226 227 224 219 221 221 220 216 204 183 153
256 242 249 246 256 247 230 229 223 226 229 221 211 224 224 223 229 215 226 237 246 259 277 204 214 225 227 247 252 226 216 230 232 226 217 221 220 219 221 218 208 193 179
270 261 241 238 240 236 225 221 214 214 217 214 210 217 224 215 221 213 224 233 240 246 252 237 219 254 246 239 238 231 225 225 230 221 221 224 220 218 222 221 213 198 193
265 261 249 241 232 231 225 220 210 208 210 206 207 207 211 210 213 202 218 227 231 240 241 256 238 246 238 236 228 223 212 213 213 213 220 215 214 217 219 219 207 191 193
260 257 246 235 228 226 222 219 207 202 207 207 203 201 204 209 209 208 215 225 225 236 247 243 246 234 243 233 214 218 215 186 204 205 210 211 215 218 215 215 213 198 197
260 254 243 232 228 223 218 212 202 198 201 203 202 201 204 204 208 207 218 209 222 231 236 242 234 229 235 226 208 218 204 198 180 199 207 215 214 212 205 213 205 198 205
256 247 240 232 226 219 212 206 199 196 197 195 197 197 202 204 212 215 205 217 217 229 236 235 229 217 229 216 203 203 194 206 198 201 204 209 210 202 204 190 191 200 215
252 242 235 229 223 215 209 202 197 193 192 188 196 192 199 209 211 206 203 212 217 221 224 229 222 218 223 217 199 195 212 196 202 205 202 205 201 199 196 194 196 197 196
248 237 227 225 218 207 206 199 196 189 183 190 193 187 195 205 211 212 212 215 225 232 225 216 221 215 225 219 201 205 207 189 197 200 205 193 201 198 205 198 197 190 188
244 229 218 220 210 200 201 198 191 183 180 188 188 190 191 206 206 203 209 215 224 230 227 222 217 213 217 232 222 210 200 191 199 214 213 190 199 206 197 197 192 193 194
239 222 215 211 199 193 197 196 182 181 178 181 183 189 194 206 207 192 194 206 206 215 212 212 216 217 233 238 228 207 207 200 205 211 200 206 198 197 205 208 206 200 202
225 214 212 199 193 194 192 191 173 173 173 174 178 187 193 197 205 201 186 210 199 212 211 216 221 229 231 231 219 213 203 196 192 193 207 207 201 199 197 198 201 209 212